Погода в Явленке

Казахстан     54°20′47″N   68°27′29″E
темп.,
°C
ветер,
м/с
пор.,
м/с
влажн.,
%
обл.,
%
осадки,
мм/ч
давл.,
гПа
погр.,
м
23 октября, сб
сб2300:00+5ююз81687100 0.0 1010514
03:00+7юз101886100 0.2 1008744
06:00+6юз101872100 0.2 1008767
09:00+7зюз91768100 0.0 1008700
12:00+10зюз915605 0.0 1010804
15:00+12зюз813563 0.0 10111038
18:00+11зюз8146499 0.0 1012809
21:00+9зюз714725 0.0 1014590
24 октября, вс
вс2400:00+9зюз715765 0.0 1015486
03:00+8зюз7148289 0.0 1016434
06:00+7зюз6138699 0.0 1017391
09:00+6юз5119079 0.0 1018290
12:00+11юз6106838 0.0 1018572
15:00+14юз71154100 0.0 10171415
18:00+12ююз71470100 0.1 1015916
21:00+12юз91746100 0.0 1013836
25 октября, пн
пн2500:00+11юз91836100 0.0 1013738
03:00+10юз81639100 0.0 1012641
06:00+10з61051100 0.0 1014769
09:00+7з4873100 0.2 1016719
12:00+8з3456100 0.2 1017635
15:00+9ю3357100 0.0 1016510
18:00+8юв2371100 0.0 101577
21:00+8ююв3573100 0.3 1014160
26 октября, вт
вт2600:00+9ю41160100 0.4 1011282
03:00+9ююз51269100 0.0 1009414
06:00+8зюз5979100 0.6 1008444
09:00+6сз6890100 1.1 1009970
12:00+3сз61094100 1.5 1012730
15:00+4ссз895268 0.0 10141234
18:00+2ссз694657 0.0 1018899
21:000ссз37560 0.0 1021284
27 октября, ср
ср2700:00−2сз34670 0.0 102390
03:00−3ссз23720 0.0 102548
06:00−3сз11740 0.0 102610
09:00−3зюз007293 0.0 102710
12:000юв015325 0.0 1028474
15:00+2юв22424 0.0 1027767
18:000вюв22510 0.0 102621
21:00−1юв34574 0.0 102658